Weather in Golukha

Russia / Altai Krai     53°50′31″N   85°26′18″E
temp.,
°C
wind,
m/s
gust,
m/s
humid.,
%
clouds,
%
prec.,
mm/h
press.,
hPa
HPBL,
m
16 june, wed
wed1601:00+13wsw12909 0.1 101511
04:00+11sw22913 0.1 101513
07:00+13ssw23895 0.1 1015120
10:00+19sw34785 0.0 1015458
13:00+23wsw44676 0.0 10141075
16:00+24wsw356434 0.9 10131357
19:00+24sw237597 1.4 1012258
22:00+17wsw117892 0.3 101311
17 june, thu
thu1701:00+15s11845 1.0 101311
04:00+14sse11922 0.5 101211
07:00+15ssw23924 1.0 1012107
10:00+20ssw3577100 0.0 1011422
13:00+24sw466588 0.0 10101116
16:00+23w4876100 1.1 10091186
19:00+20nnw358626 4.3 1008140
22:00+16sse11895 0.2 100911
18 june, fri
fri1801:00+15w119051 0.2 100911
04:00+14nnw118879 0.0 100811
07:00+16s1188100 0.0 100847
10:00+19ssw1183100 0.4 1007219
13:00+19s228662 1.9 1007278
16:00+23sw357676 2.3 10061062
19:00+22sw238294 3.7 100574
22:00+17s2493100 3.1 100470
19 june, sat
sat1901:00+15ese219321 4.3 100313
04:00+15se2292100 0.6 100227
07:00+16sse269355 0.6 1002189
10:00+21ssw357969 0.0 1002498
13:00+24wsw226788 0.0 1001746
16:00+25w12655 0.0 999822
19:00+24ssw12735 0.1 999571
22:00+16ssw2495100 3.6 99990
20 june, sun
sun2001:00+15ese2394100 4.5 99942
04:00+14sw3699100 0.0 999263
07:00+13sw3499100 0.1 1000223
10:00+14sw3497100 0.3 1001438
13:00+13wsw5997100 0.9 1003595
16:00+10sw61393100 0.4 1007884
19:00+10sw91282100 0.6 10091311
22:00+8sw51083100 0.1 1011765